Weather History for PHNY - August, 2013

Change the Weather History Date:

Wednesday, August 28, 2013

  Actual Average (PHOG) Record (PHOG)
Temperature  
Mean Temperature 78 °F 80 °F  
Max Temperature 86 °F 88 °F 92 °F (2006)
Min Temperature 70 °F 71 °F 63 °F (1952)
Degree Days  
Heating Degree Days 0 0  
Month to date heating degree days 0  
Since 1 June heating degree days 0  
Since 1 July heating degree days 0  
Cooling Degree Days 13 15  
Month to date cooling degree days 420  
Year to date cooling degree days 2506  
Since 1 June cooling degree days 1247  
Growing Degree Days 28 (Base 50)    
Moisture  
Dew Point 66 °F    
Average Humidity 70    
Maximum Humidity 91    
Minimum Humidity 43    
Precipitation  
Precipitation 0.00 in 0.01 in 0.07 in (1979)
Month to date precipitation 0.46  
Year to date precipitation 10.66  
Snow  
Snow 0.00 in - - ()
Month to date snowfall  
Since 1 June snowfall  
Since 1 July snowfall  
Snow Depth -    
Sea Level Pressure  
Sea Level Pressure 29.98 in    
Wind  
Wind Speed 10 mph (NE)    
Max Wind Speed 21 mph    
Max Gust Speed 24 mph    
Visibility 10 miles    
Events Rain    
T = Trace of Precipitation, MM = Missing Value Source: NWS Daily Summary

Daily Weather History Graph

Daily Weather History Graph

Search for Another Location

Airport or City:

Trip Planner

Search our weather history database for the weather conditions in past years. The results will help you decide how hot, cold, wet, or windy it might be!

Date:

Astronomy

Aug. 28, 2013 Rise Set
Actual Time 6:10 AM HST 6:46 PM HST
Civil Twilight 5:48 AM HST 7:09 PM HST
Nautical Twilight 5:21 AM HST 7:35 PM HST
Astronomical Twilight 4:54 AM HST 8:02 PM HST
Moon No Moon Rise 1:12 PM HST (8/28)
Length of Visible Light 13h 20m
Length of Day
12h 35m
Last Quarter, 45% of the Moon is Illuminated
Aug 28
Last Quarter
Sep 5
New
Sep 12
First Quarter
Sep 19
Full
Sep 26
Last Quarter

Hourly Weather History & Observations

Time (HST) Temp. Heat Index Dew Point Humidity Pressure Visibility Wind Dir Wind Speed Gust Speed Precip Events Conditions
12:56 AM 72.0 °F - 66.9 °F 84% 30.01 in 10.0 mi NE 10.4 mph - 0.00 in   Scattered Clouds
1:56 AM 70.9 °F - 68.0 °F 91% 29.99 in 10.0 mi NE 15.0 mph - 0.00 in   Clear
2:56 AM 70.9 °F - 66.9 °F 87% 29.98 in 10.0 mi NE 10.4 mph - N/A   Partly Cloudy
3:56 AM 72.0 °F - 68.0 °F 87% 29.98 in 10.0 mi NNE 6.9 mph - N/A   Mostly Cloudy
4:26 AM 71.6 °F - 68.0 °F 88% 30.05 in 10.0 mi NE 6.9 mph - 0.00 in   Mostly Cloudy
4:56 AM 71.6 °F - 68.0 °F 88% 30.04 in 10.0 mi NE 9.2 mph - N/A Rain Light Rain
5:56 AM 70.9 °F - 68.0 °F 91% 29.98 in 10.0 mi NE 12.7 mph - 0.00 in   Partly Cloudy
6:56 AM 72.0 °F - 68.0 °F 87% 29.99 in 10.0 mi NE 9.2 mph - N/A   Clear
7:56 AM 77.0 °F - 65.8 °F 68% 30.00 in 10.0 mi NE 5.8 mph - N/A   Clear
8:56 AM 79.0 °F - 65.8 °F 64% 29.99 in 10.0 mi NNE 9.2 mph - N/A   Mostly Cloudy
9:34 AM 78.8 °F - 64.4 °F 61% 30.06 in 10.0 mi NNE 11.5 mph - N/A   Scattered Clouds
9:56 AM 82.9 °F 84.6 °F 64.9 °F 54% 29.99 in 10.0 mi NE 11.5 mph - N/A   Partly Cloudy
10:56 AM 81.9 °F 83.5 °F 64.9 °F 56% 29.98 in 10.0 mi NE 6.9 mph - N/A   Scattered Clouds
11:16 AM 80.6 °F 82.7 °F 66.2 °F 61% 30.04 in 10.0 mi Variable 3.5 mph - N/A   Mostly Cloudy
11:37 AM 82.4 °F 83.9 °F 64.4 °F 54% 30.04 in 10.0 mi NE 9.2 mph - N/A   Mostly Cloudy
11:56 AM 86.9 °F 87.8 °F 63.0 °F 45% 29.95 in 10.0 mi NNE 9.2 mph - N/A   Partly Cloudy
12:56 PM 83.8 °F 87.0 °F 68.0 °F 59% 29.94 in 10.0 mi Calm Calm - N/A   Partly Cloudy
1:56 PM 81.9 °F 84.8 °F 68.0 °F 63% 29.93 in 10.0 mi Variable 3.5 mph - N/A   Partly Cloudy
2:56 PM 86.9 °F 87.2 °F 61.9 °F 43% 29.90 in 10.0 mi NE 15.0 mph - N/A   Clear
3:56 PM 84.9 °F 84.8 °F 59.9 °F 43% 29.90 in 10.0 mi ENE 15.0 mph - N/A   Clear
4:56 PM 81.9 °F 82.1 °F 59.0 °F 46% 29.91 in 10.0 mi NE 15.0 mph - N/A   Clear
5:56 PM 77.9 °F - 64.9 °F 64% 29.91 in 10.0 mi NE 20.7 mph 24.2 mph N/A   Clear
6:56 PM 73.9 °F - 64.9 °F 73% 29.93 in 10.0 mi ENE 8.1 mph - N/A   Clear
7:56 PM 74.8 °F - 64.9 °F 71% 29.93 in 10.0 mi NE 9.2 mph - N/A   Clear
8:56 PM 73.9 °F - 63.9 °F 71% 29.95 in 10.0 mi Calm Calm - N/A   Clear
9:56 PM 74.8 °F - 66.9 °F 76% 29.94 in 10.0 mi North 4.6 mph - N/A   Mostly Cloudy
10:20 PM 73.4 °F - 66.2 °F 78% 30.02 in 10.0 mi NE 11.5 mph - N/A   Mostly Cloudy
10:29 PM 73.4 °F - 66.2 °F 78% 30.02 in 10.0 mi NNE 10.4 mph - N/A   Scattered Clouds
10:56 PM 73.4 °F - 66.2 °F 78% 30.01 in 10.0 mi NE 13.8 mph - N/A   Mostly Cloudy
11:56 PM 72.9 °F - 65.8 °F 79% 29.92 in 10.0 mi NE 6.9 mph - N/A   Mostly Cloudy